Fremont, MI

3:31 AM EST on January 20, 2018 (GMT -0500)
Fremont

Weather History for KFFX - September, 2013

Change the Weather History Date:

Saturday, September 14, 2013

  Actual Average (KMKG) Record (KMKG)
Temperature  
Mean Temperature 51 °F -  
Max Temperature 66 °F 71 °F 87 °F (1897)
Min Temperature 36 °F 52 °F 34 °F (1919)
Degree Days  
Heating Degree Days 14    
Growing Degree Days 1 (Base 50)    
Moisture  
Dew Point 42 °F    
Average Humidity 75    
Maximum Humidity 100    
Minimum Humidity 23    
Precipitation  
Precipitation 0.00 in - - ()
Sea Level Pressure  
Sea Level Pressure 30.13 in    
Wind  
Wind Speed 3 mph (SW)    
Max Wind Speed 12 mph    
Max Gust Speed 18 mph    
Visibility 10 miles    
Events      
Averages and records for this station are not official NWS values.
T = Trace of Precipitation, MM = Missing Value Source: NWS Daily Summary

Daily Weather History Graph

Daily Weather History Graph

Search for Another Location

Airport or City:

Trip Planner

Search our weather history database for the weather conditions in past years. The results will help you decide how hot, cold, wet, or windy it might be!

Date:

Astronomy

Sep. 14, 2013 Rise Set
Actual Time 7:22 AM EDT 7:55 PM EDT
Civil Twilight 6:53 AM EDT 8:24 PM EDT
Nautical Twilight 6:19 AM EDT 8:58 PM EDT
Astronomical Twilight 5:44 AM EDT 9:33 PM EDT
Moon 4:42 PM EDT (9/14) 1:46 AM EDT (9/14)
Length of Visible Light 13h 30m
Length of Day
12h 32m
Waxing Gibbous, 72% of the Moon is Illuminated
Sep 14
Waxing Gibbous
Sep 19
Full
Sep 26
Last Quarter
Oct 4
New
Oct 11
First Quarter

Hourly Weather History & Observations

Time (EDT) Temp. Windchill Dew Point Humidity Pressure Visibility Wind Dir Wind Speed Gust Speed Precip Events Conditions
12:15 AM 45.5 °F 43.2 °F 41.2 °F 85% 30.15 in 10.0 mi North 4.6 mph - N/A   Clear
12:35 AM 44.1 °F 42.5 °F 41.0 °F 89% 30.15 in 10.0 mi NNW 3.5 mph - N/A   Clear
12:55 AM 42.8 °F 41.1 °F 41.0 °F 93% 30.15 in 10.0 mi NNW 3.5 mph - N/A   Clear
1:15 AM 43.0 °F 41.3 °F 41.2 °F 93% 30.15 in 10.0 mi North 3.5 mph - N/A   Clear
1:35 AM 41.7 °F - 40.3 °F 95% 30.14 in 10.0 mi Calm Calm - N/A   Clear
1:54 AM 41.2 °F - 39.2 °F 93% 30.15 in 10.0 mi Calm Calm - N/A   Clear
2:15 AM 39.2 °F - 38.7 °F 98% 30.15 in 10.0 mi Calm Calm - N/A   Clear
2:35 AM 40.1 °F - 38.8 °F 95% 30.15 in 10.0 mi Calm Calm - N/A   Clear
2:55 AM 38.5 °F - 38.1 °F 99% 30.15 in 10.0 mi Calm Calm - N/A   Clear
3:15 AM 38.7 °F - 38.7 °F 100% 30.15 in 10.0 mi Calm Calm - N/A   Clear
3:34 AM 39.4 °F - 39.2 °F 99% 30.15 in 10.0 mi Calm Calm - N/A   Clear
3:55 AM 39.7 °F - 39.2 °F 98% 30.15 in 10.0 mi Calm Calm - N/A   Clear
4:15 AM 40.6 °F - 40.1 °F 98% 30.15 in 10.0 mi Calm Calm - N/A   Clear
4:35 AM 39.7 °F - 39.0 °F 97% 30.15 in 10.0 mi Calm Calm - N/A   Clear
4:55 AM 40.1 °F 38.0 °F 39.4 °F 97% 30.15 in 10.0 mi East 3.5 mph - N/A   Clear
5:15 AM 39.7 °F - 39.0 °F 97% 30.16 in 10.0 mi Calm Calm - N/A   Clear
5:34 AM 39.7 °F - 39.4 °F 99% 30.16 in 10.0 mi Calm Calm - N/A   Clear
5:55 AM 38.8 °F - 38.5 °F 99% 30.16 in 10.0 mi Calm Calm - N/A   Clear
6:15 AM 38.5 °F - 38.1 °F 99% 30.17 in 10.0 mi Calm Calm - N/A   Clear
6:34 AM 38.3 °F - 37.9 °F 99% 30.17 in 10.0 mi Calm Calm - N/A   Clear
6:55 AM 37.8 °F - 37.8 °F 100% 30.16 in 10.0 mi Calm Calm - N/A   Clear
7:15 AM 37.0 °F - 37.0 °F 100% 30.16 in 10.0 mi Calm Calm - N/A   Clear
7:35 AM 36.5 °F - 36.5 °F 100% 30.17 in 10.0 mi Calm Calm - N/A   Clear
7:55 AM 37.4 °F - 37.4 °F 100% 30.17 in 10.0 mi Calm Calm - N/A   Clear
8:15 AM 39.2 °F - 39.2 °F 100% 30.18 in 10.0 mi Calm Calm - N/A   Clear
8:34 AM 42.4 °F - 42.4 °F 100% 30.18 in 10.0 mi Calm Calm - N/A   Clear
8:55 AM 45.0 °F - 43.3 °F 94% 30.18 in 10.0 mi Calm Calm - N/A   Clear
9:15 AM 46.8 °F - 44.1 °F 90% 30.18 in 10.0 mi Calm Calm - N/A   Clear
9:35 AM 48.0 °F - 44.2 °F 87% 30.19 in 10.0 mi SSW 3.5 mph - N/A   Clear
9:55 AM 50.0 °F - 45.1 °F 83% 30.19 in 10.0 mi SW 3.5 mph - N/A   Clear
10:14 AM 52.3 °F - 45.1 °F 76% 30.19 in 10.0 mi Calm Calm - N/A   Clear
10:35 AM 55.2 °F - 44.8 °F 68% 30.19 in 10.0 mi West 4.6 mph - N/A   Clear
10:55 AM 56.7 °F - 41.2 °F 56% 30.19 in 10.0 mi West 5.8 mph - N/A   Clear
11:15 AM 58.1 °F - 39.2 °F 49% 30.18 in 10.0 mi West 5.8 mph - N/A   Clear
11:35 AM 59.0 °F - 37.8 °F 45% 30.17 in 10.0 mi SW 4.6 mph - N/A   Clear
11:54 AM 60.1 °F - 36.1 °F 41% 30.17 in 10.0 mi SW 3.5 mph - N/A   Clear
12:15 PM 61.7 °F - 37.4 °F 41% 30.17 in 10.0 mi SSW 4.6 mph - N/A   Clear
12:35 PM 62.2 °F - 33.6 °F 34% 30.16 in 10.0 mi SW 8.1 mph - N/A   Clear
12:55 PM 63.0 °F - 37.6 °F 39% 30.15 in 10.0 mi SSW 5.8 mph - N/A   Clear
1:15 PM 63.9 °F - 40.8 °F 43% 30.15 in 10.0 mi West 9.2 mph - N/A   Clear
1:35 PM 63.7 °F - 41.5 °F 44% 30.14 in 10.0 mi Calm Calm - N/A   Clear
1:55 PM 66.0 °F - 41.7 °F 41% 30.13 in 10.0 mi SSW 6.9 mph - N/A   Clear
2:15 PM 65.7 °F - 41.0 °F 41% 30.12 in 10.0 mi WSW 8.1 mph - N/A   Clear
2:35 PM 66.2 °F - 39.6 °F 38% 30.12 in 10.0 mi SSW 10.4 mph - N/A   Clear
2:54 PM 66.2 °F - 37.0 °F 34% 30.12 in 10.0 mi SW 9.2 mph - N/A   Clear
3:15 PM 66.4 °F - 27.5 °F 23% 30.11 in 10.0 mi SSW 9.2 mph 17.3 mph N/A   Clear
3:35 PM 66.2 °F - 30.6 °F 26% 30.10 in 10.0 mi SW 6.9 mph - N/A   Clear
3:55 PM 66.6 °F - 33.1 °F 29% 30.09 in 10.0 mi SW 8.1 mph - N/A   Clear
4:15 PM 66.6 °F - 40.5 °F 38% 30.10 in 10.0 mi SW 10.4 mph - N/A   Clear
4:35 PM 66.0 °F - 43.5 °F 44% 30.09 in 10.0 mi SSW 11.5 mph 16.1 mph N/A   Clear
4:55 PM 65.1 °F - 46.9 °F 52% 30.09 in 10.0 mi SSW 9.2 mph 18.4 mph N/A   Scattered Clouds
5:14 PM 64.6 °F - 47.3 °F 53% 30.09 in 10.0 mi SSW 9.2 mph - N/A   Scattered Clouds
5:35 PM 64.9 °F - 48.2 °F 55% 30.08 in 10.0 mi SSW 8.1 mph - N/A   Scattered Clouds
5:55 PM 64.9 °F - 48.4 °F 55% 30.07 in 10.0 mi South 9.2 mph - N/A   Clear
6:14 PM 62.6 °F - 48.4 °F 60% 30.08 in 10.0 mi South 8.1 mph - N/A   Clear
6:35 PM 63.3 °F - 48.4 °F 58% 30.07 in 10.0 mi SSW 6.9 mph - N/A   Clear
6:55 PM 62.6 °F - 49.1 °F 61% 30.07 in 10.0 mi SSW 9.2 mph - N/A   Clear
7:15 PM 61.3 °F - 49.5 °F 65% 30.07 in 10.0 mi SSW 6.9 mph - N/A   Clear
7:35 PM 60.4 °F - 49.3 °F 67% 30.07 in 10.0 mi South 8.1 mph - N/A   Clear
7:54 PM 57.9 °F - 49.8 °F 74% 30.07 in 10.0 mi Calm Calm - N/A   Clear
8:15 PM 56.3 °F - 50.2 °F 80% 30.07 in 10.0 mi Calm Calm - N/A   Clear
8:35 PM 55.8 °F - 50.2 °F 82% 30.06 in 10.0 mi Calm Calm - N/A   Clear
8:55 PM 54.1 °F - 50.9 °F 89% 30.07 in 10.0 mi Calm Calm - N/A   Clear
9:15 PM 53.2 °F - 51.4 °F 94% 30.07 in 10.0 mi Calm Calm - N/A   Clear
9:35 PM 52.0 °F - 50.4 °F 94% 30.07 in 10.0 mi Calm Calm - N/A   Clear
9:54 PM 53.6 °F - 51.4 °F 92% 30.06 in 10.0 mi SE 3.5 mph - N/A   Clear
10:15 PM 54.5 °F - 51.4 °F 89% 30.06 in 10.0 mi Calm Calm - N/A   Clear
10:34 PM 53.6 °F - 51.1 °F 91% 30.05 in 10.0 mi SE 3.5 mph - N/A   Clear
10:55 PM 53.4 °F - 50.2 °F 89% 30.05 in 10.0 mi SE 3.5 mph - N/A   Clear
11:14 PM 53.2 °F - 49.3 °F 86% 30.05 in 10.0 mi SSE 3.5 mph - N/A   Clear
11:35 PM 52.5 °F - 48.2 °F 85% 30.05 in 10.0 mi Calm Calm - N/A   Clear
11:55 PM 51.8 °F - 48.2 °F 88% 30.05 in 10.0 mi Calm Calm - N/A   Clear